Regional Weather Roundup
Issued by NWS

Home | Current Version | Previous Version | Text Only | Print | Product List | Glossary Off
Versions: 1 2 3 4 5 6 7 8 9 10 11 12 13 14 15 16 17 18 19 20 21 22 23 24 25 26 27 28 29 30 31 32 33 34 35 36 37 38 39 40 41 42 43 44 45 46 47 48 49 50

000
ASUS43 KDMX 160601
RWRIA

WEATHER ROUNDUP FOR IOWA
NATIONAL WEATHER SERVICE DES MOINES IA
1200 AM CST TUE JAN 16 2018

NOTE: "FAIR" INDICATES FEW OR NO CLOUDS BELOW 12,000 FEET WITH NO
SIGNIFICANT WEATHER AND/OR OBSTRUCTIONS TO VISIBILITY.

* - THESE STATIONS ARE NOT NWS STATIONS...THUS NOT UNDER NWS
QUALITY CONTROL.  THEY ALSO DO NOT REPORT WEATHER SUCH
AS PRECIPITATION OR FOG.

IAZ001>003-012>014-020>022-031>034-043>046-160700-
   NORTHWEST IOWA

CITY           SKY/WX    TMP DP  RH WIND       PRES   REMARKS
CARROLL *      FLURRIES  -6 -13  71 NW16      30.63S WCI -28
CHEROKEE *     CLEAR     -6 -12  76 N7        30.67S WCI -21
DENISON *      CLOUDY    -6 -11  77 NW14      30.67S WCI -26
LE MARS *      CLOUDY    -4  -9  77 NW13G21   30.70S WCI -23
ORANGE CITY *  CLOUDY    -4  -9  77 N13       30.64S WCI -23
SHELDON *      CLOUDY    -6 -13  71 N16G25    30.64R WCI -28
SIOUX CITY     MOCLDY    -3 -10  72 NW22      30.71S WCI -27
6HR MIN TEMP:  -3; 6HR MAX TEMP:  -2;

SPENCER        MOCLDY    -8 -15  71 NW14      30.63S WCI -29
6HR MIN TEMP:  -9; 6HR MAX TEMP:  -4;

STORM LAKE *   FLURRIES  -8 -13  77 NW15      30.61S WCI -29
$$

IAZ055>058-069>071-079>083-090>094-160700-
   SOUTHWEST IOWA

CITY           SKY/WX    TMP DP  RH WIND       PRES   REMARKS
ATLANTIC *     CLOUDY    -6 -11  77 NW15      30.65F WCI -27
AUDUBON *      CLEAR     -6 -11  77 NW8       30.62F WCI -21
CLARINDA *     MOCLDY    -2  -9  71 NW12G22   30.70S WCI -20
COUNCIL BLFS * MOCLDY    -4  -8  84 NW9G23    30.67S WCI -20
CRESTON *      CLEAR     -6 -11  77 NW16      30.61F WCI -28
HARLAN  *      PTCLDY    -6 -11  77 NW12      30.70R WCI -24
LAMONI         CLEAR     -4 -12  68 NW16      30.61S WCI -25
6HR MIN TEMP:  -4; 6HR MAX TEMP:   1;

RED OAK *      PTCLDY    -4  -9  77 NW10      30.69S WCI -21
SHENANDOAH *   PTCLDY    -2  -9  71 NW9G16    30.71F WCI -18
$$

IAZ047>049-059>061-072>074-084-160700-
   CENTRAL IOWA

CITY           SKY/WX    TMP DP  RH WIND       PRES   REMARKS
AMES           CLOUDY    -7 -13  75 NW12G23   30.61S WCI -26
6HR MIN TEMP:  -7; 6HR MAX TEMP:  -1;

ANKENY *       MOCLDY    -6 -15  65 NW14G22   30.63S WCI -26
BOONE *        CLOUDY    -8 -15  71 NW14      30.58F WCI -28
CHARITON *     PTCLDY    -4 -11  71 NW18      30.59S WCI -26
DES MOINES     FLURRIES  -5 -14  65 NW14G24   30.61S WCI -25
6HR MIN TEMP:  -5; 6HR MAX TEMP:   1; 6HR PCP: TRACE;

GRINNELL*      CLEAR     -7 -12  76 NW17      30.56S WCI -29
KNOXVILLE *    CLOUDY    -6 -17  59 NW10      30.59R WCI -23
MARSHALLTOWN   CLOUDY    -7 -13  75 NW18      30.55F WCI -30
6HR MIN TEMP:  -7; 6HR MAX TEMP:  -2;

NEWTON *       CLOUDY    -8 -15  71 NW14G22   30.58S WCI -28
PELLA *        CLEAR     -5 -13  70 NW13      30.61R WCI -25
PERRY *          N/A     -6 -13  70 NW15      30.63F WCI -27
$$

IAZ004>006-015-016-023>025-035-036-160700-
   NORTH CENTRAL IOWA

CITY           SKY/WX    TMP DP  RH WIND       PRES   REMARKS
ALGONA *       FLURRIES  -8 N/A N/A NW14G24   30.58S WCI -28
CLARION *      CLOUDY    -8 -13  77 NW21      30.57F WCI -32
ESTHERVILLE    CLOUDY   -10 -14  82 NW24      30.60S FOG     WCI -37
6HR MIN TEMP: -11; 6HR MAX TEMP:  -9; 6HR PCP: TRACE;

FORT DODGE *   FLURRIES  -8 -14  74 NW12G17   30.60F WCI -27
MASON CITY     CLOUDY    -8 -14  74 NW22      30.54S WCI -33
6HR MIN TEMP:  -8; 6HR MAX TEMP:  -6; 6HR PCP: TRACE;

FOREST CITY *  LGT SNOW  -6 -11  77 NW12      30.55S WCI -24
WEBSTER CITY * CLOUDY    -8 -17  65 NW18G24   30.57S WCI -31
IOWA FALLS *     N/A     -7 -13  76 NW17      30.56R WCI -30
$$

IAZ007>011-017>019-026>030-037>042-050>054-066-160700-
   NORTHEAST IOWA

CITY           SKY/WX    TMP DP  RH WIND       PRES   REMARKS
CEDAR RAPIDS   CLOUDY    -3  -9  75 NW16      30.50R WCI -24
6HR MIN TEMP:  -3; 6HR MAX TEMP:   1;

CHARLES CITY * CLOUDY    -4  -9  77 NW13G21   30.50S WCI -23
CLINTON *        N/A      0  -5  79 W17       30.45R WCI -21
DECORAH *      LGT SNOW   1  -2  85 NW9       30.44S WCI -14
DUBUQUE        FLURRIES   1  -5  75 NW12      30.40S WCI -16
6HR MIN TEMP:   0; 6HR MAX TEMP:   5; 6HR PCP: TRACE;

MONTICELLO *   CLOUDY     0  -8  71 NW13      30.46S WCI -18
OELWEIN *      CLOUDY    -4  -8  84 NW18G24   30.47F WCI -26
WATERLOO         N/A     -5 -12  72 NW15      30.53R WCI -26
6HR MIN TEMP:  -5; 6HR MAX TEMP:  -1; 6HR PCP:  0.01;

$$

IAZ064-065-067-068-078-160700-
   EAST CENTRAL IOWA

CITY           SKY/WX    TMP DP  RH WIND       PRES   REMARKS
DAVENPORT      FLURRIES N/A N/A N/A W13       30.49R
                                      6HR PCP: TRACE;

IOWA CITY      MOCLDY    -1 -10  65 NW16G24   30.54S WCI -21
6HR MIN TEMP:  -1; 6HR MAX TEMP:   3;

MT. PLEASANT * PTCLDY    -4  -9  77 W10G17    30.56R WCI -21
MUSCATINE *    CLOUDY     0  -8  71 W16       30.55S WCI -21
QUAD CITIES      N/A      0  -6  76 W15       30.50R WCI -19
6HR MIN TEMP:   0; 6HR MAX TEMP:   5;

$$

IAZ062-063-075>077-085>089-095>099-160700-
   SOUTHEAST IOWA

CITY           SKY/WX    TMP DP  RH WIND       PRES   REMARKS
BURLINGTON     CLEAR     -3 -12  65 W13       30.54S WCI -22
6HR MIN TEMP:  -3; 6HR MAX TEMP:   2;

FAIRFIELD *    MOCLDY    -4 -15  59 W16       30.56S WCI -25
FORT MADISON * PTCLDY    -2  -9  71 W14G21    30.55F WCI -21
KEOKUK *       MOCLDY    -2  -9  71 W12       30.57S WCI -20
OSKALOOSA *      N/A     -5 -12  73 NW20G25   30.58S WCI -28
OTTUMWA        PTCLDY    -3 -12  65 NW15      30.57F WCI -23
6HR MIN TEMP:  -3; 6HR MAX TEMP:   1;

WASHINGTON *   CLOUDY    -4  -9  77 W17G24    30.56R WCI -26
$$

ABBREVIATIONS USED IN REMARKS
   TC - TEMPERATURES IN CELSIUS
  WCI - WIND CHILL INDEX
   HX - HEAT INDEX
  VSB - VISIBILITY
$$




USA.gov is the U.S. government's official web portal to all federal, state and local government web resources and services.